EW6552 Weather Reports


time (UTC)temp
C
wind
direction
speed
KPH
gust
KPH
rain 1hr
cm
rain 24hr
cm
rain mn
cm
humidity
%
barometer
mb
20260503223017 28 0.0 3.2 0.00 0.00 0.00 42 1008.8
20260503220022 28 0.0 4.8 0.00 0.00 0.00 42 1009.1
20260503213022 27 0.0 1.6 0.00 0.00 0.00 44 1009.5
20260503210023 27 0.0 8.0 0.00 0.00 0.00 46 1009.8
20260503203102 26 0.0 6.4 0.00 0.00 0.00 46 1010.3
20260503200016 26 0.0 8.0 0.00 0.00 0.00 46 1010.7
20260503193021 25 0.0 3.2 0.00 0.00 0.00 51 1011.0
20260503190022 23 0.0 14.5 0.00 0.00 0.00 52 1011.5
20260503183022 23 0.0 9.7 0.00 0.00 0.00 54 1011.8
20260503180017 21 0.0 8.0 0.00 0.00 0.00 58 1012.0
20260503173022 20 0.0 6.4 0.00 0.00 0.00 63 1012.1
20260503053018 15 0.0 0.0 0.00 0.00 0.00 79 1012.4
20260503050015 15 0.0 0.0 0.00 0.00 0.00 75 1012.3
20260503043020 16 0.0 0.0 0.00 0.00 0.00 72 1012.1
20260503040100 17 0.0 0.0 0.00 0.00 0.00 64 1011.6
20260503033021 20 0.0 4.8 0.00 0.00 0.00 55 1011.2
20260503030100 21 0.0 1.6 0.00 0.00 0.00 54 1010.9
20260503023015 22 0.0 0.0 0.00 0.00 0.00 52 1010.6
20260503020020 22 0.0 4.8 0.00 0.00 0.00 52 1010.5
20260503013015 22 0.0 8.0 0.00 0.00 0.00 53 1010.7
20260503010020 22 0.0 6.4 0.00 0.00 0.00 53 1010.6
20260503003035 22 0.0 1.6 0.00 0.00 0.00 54 1010.9
20260503000021 23 0.0 9.7 0.00 0.00 0.00 54 1011.0
20260502233040 23 0.0 1.6 0.00 0.00 0.00 55 1011.4
20260502230042 22 0.0 1.6 0.00 0.00 0.00 57 1011.8